Flag for Thailand Weather past 2 weeks in Hat Yai, Thailand

82 °F

Broken clouds.

Feels Like: 91 °F
Forecast: 77 / 84 °F
Wind: 3 mph from North

Location: Hat Yai Airport

Current Time: Nov 30, 2015 at 10:21:28 AM

Latest Report: Nov 30, 2015 at 10:00 AM

Visibility: 5 mi

Pressure: 29.95 "Hg

Humidity: 84%

Dew point: 77 °F

Location of Hat YaiLocation

Historic Weather in Hat Yai — Graph


Hat Yai temperature yesterday

Maximum temperature yesterday: 91 °F (at 1:00 PM)
Minimum temperature yesterday: 75 °F (at 1:30 AM)
Average temperature yesterday: 81 °F

Past Weeks' High & Low Weather Summary

High91 °F (Nov 26, 1:00 PM)100% (Nov 15, 1:30 PM)29.95 "Hg (Nov 15, 1:30 PM)
Low75 °F (Nov 15, 8:30 PM)59% (Nov 16, 1:30 PM)29.71 "Hg (Nov 21, 3:00 PM)
Average80 °F91%29.82 "Hg
* Reported Nov 15 9:00 AM — Nov 30 9:00 AM, Hat Yai, Weather by CustomWeather, © 2015

Note: Actual official high and low records may vary slightly from our data, if they occured in-between our weather recording intervals... More about our weather records


Hat Yai weather history for previous 24 hours

Time TempWeatherWind HumidityBarometerVisibility
9:00 AM
Mon, Nov 30
79 °FBroken clouds.7 mph94%29.95 "HgN/A
7:30 AM75 °FBroken clouds.3 mph100%29.92 "HgN/A
7:00 AM75 °FBroken clouds.3 mph100%29.89 "HgN/A
6:30 AM75 °FBroken clouds.No wind100%29.89 "HgN/A
6:00 AM75 °FPartly cloudy.2 mph100%29.89 "Hg6 mi
5:30 AM75 °FLight rain. Partly cloudy.3 mph100%29.89 "Hg5 mi
5:00 AM75 °FLight rain. Partly cloudy.3 mph100%29.89 "Hg5 mi
4:00 AM75 °FLight rain. Partly cloudy.7 mph100%29.89 "Hg5 mi
3:30 AM77 °FLight rain. Partly cloudy.3 mph100%29.89 "Hg5 mi
3:00 AM77 °FPartly cloudy.5 mph100%29.89 "Hg5 mi
2:00 AM77 °FPartly cloudy.3 mph100%29.89 "Hg6 mi
1:30 AM77 °FLight rain. Partly cloudy.No wind100%29.92 "Hg6 mi
1:00 AM77 °FPartly cloudy.2 mph100%29.92 "Hg6 mi
12:30 AM77 °FPartly cloudy.3 mph100%29.92 "Hg6 mi
12:00 AM79 °FPartly cloudy.5 mph100%29.92 "Hg6 mi
11:30 PM
Sun, Nov 29
79 °FPartly cloudy.5 mph100%29.92 "Hg6 mi
11:00 PM79 °FPartly cloudy.5 mph100%29.92 "Hg6 mi
10:30 PM79 °FLight rain. Partly cloudy.3 mph100%29.92 "HgN/A
10:00 PM79 °FLight rain. Partly cloudy.2 mph100%29.95 "HgN/A
9:30 PM79 °FLight rain. Partly cloudy.3 mph100%29.95 "HgN/A
9:00 PM79 °FLight rain. Partly cloudy.2 mph100%29.92 "HgN/A
8:30 PM79 °FPartly cloudy.2 mph100%29.92 "HgN/A
8:00 PM79 °FLight rain. Partly cloudy.No wind100%29.89 "HgN/A
7:30 PM81 °FLight rain. Partly cloudy.8 mph89%29.89 "Hg5 mi
7:00 PM81 °FLight rain. Partly cloudy.8 mph89%29.89 "HgN/A
6:30 PM82 °FPartly cloudy.9 mph84%29.86 "HgN/A
6:00 PM82 °FPartly cloudy.8 mph84%29.86 "HgN/A
5:30 PM82 °FBroken clouds.12 mph84%29.83 "HgN/A
4:30 PM82 °FLight rain. Broken clouds.6 mph79%29.80 "Hg6 mi
4:00 PM84 °FScattered showers. Broken clouds.2 mph74%29.80 "HgN/A
3:30 PM90 °FScattered showers. Scattered clouds.8 mph67%29.80 "HgN/A
3:00 PM90 °FScattered showers. Scattered clouds.8 mph63%29.80 "HgN/A
1:30 PM90 °FScattered showers. Scattered clouds.8 mph67%29.83 "HgN/A
1:00 PM91 °FScattered showers. Scattered clouds.10 mph59%29.86 "HgN/A
12:00 PM90 °FScattered clouds.8 mph63%29.89 "HgN/A
11:30 AM88 °FScattered clouds.8 mph66%29.89 "HgN/A
11:00 AM88 °FScattered clouds.8 mph70%29.92 "HgN/A
10:30 AM88 °FScattered clouds.7 mph70%29.92 "HgN/A
10:00 AM86 °FScattered clouds.6 mph75%29.92 "HgN/A
Weather by CustomWeather, © 2015

See weather overviewHow to use our weather pages